Wetterdaten: Montag, 11.05.2015
Datum Zeit Auen-Temp. Temp gefhlt Luftfeuchte Luftdruck Regen Wind Richtung Richtung Taupunkt Windben
11.05.2015 00:00 7,3 C 6,9 C 76 % 1025,9 hPa 0,0 mm 0,0 km/h (0 Bft) W 270 3,4 C 0,0 km/h (0 Bft)
11.05.2015 00:05 7,2 C 6,9 C 76 % 1025,9 hPa 0,0 mm 0,0 km/h (0 Bft) W 270 3,3 C 0,0 km/h (0 Bft)
11.05.2015 00:10 7,3 C 6,9 C 77 % 1025,9 hPa 0,0 mm 0,0 km/h (0 Bft) O-NO 67 3,5 C 0,0 km/h (0 Bft)
11.05.2015 00:15 7,4 C 7,0 C 78 % 1025,8 hPa 0,0 mm 0,0 km/h (0 Bft) O-NO 67 3,8 C 0,0 km/h (0 Bft)
11.05.2015 00:20 6,9 C 6,6 C 78 % 1025,8 hPa 0,0 mm 0,0 km/h (0 Bft) NW 315 3,3 C 0,0 km/h (0 Bft)
11.05.2015 00:25 6,8 C 6,5 C 78 % 1025,8 hPa 0,0 mm 0,0 km/h (0 Bft) NW 315 3,2 C 0,0 km/h (0 Bft)
11.05.2015 00:30 6,8 C 6,4 C 78 % 1025,8 hPa 0,0 mm 0,0 km/h (0 Bft) S-SO 157 3,2 C 0,0 km/h (0 Bft)
11.05.2015 00:35 6,6 C 6,3 C 78 % 1025,9 hPa 0,0 mm 0,0 km/h (0 Bft) SW 225 3,0 C 0,0 km/h (0 Bft)
11.05.2015 00:40 6,4 C 6,1 C 78 % 1025,9 hPa 0,0 mm 0,0 km/h (0 Bft) SW 225 2,8 C 0,0 km/h (0 Bft)
11.05.2015 00:45 6,3 C 6,0 C 78 % 1025,9 hPa 0,0 mm 0,0 km/h (0 Bft) W 270 2,8 C 0,0 km/h (0 Bft)
11.05.2015 00:50 6,5 C 6,1 C 79 % 1025,9 hPa 0,0 mm 0,0 km/h (0 Bft) W 270 3,1 C 0,0 km/h (0 Bft)
11.05.2015 00:55 6,5 C 6,1 C 79 % 1025,7 hPa 0,0 mm 0,0 km/h (0 Bft) W 270 3,1 C 0,0 km/h (0 Bft)
11.05.2015 01:00 6,3 C 6,0 C 79 % 1025,7 hPa 0,0 mm 0,0 km/h (0 Bft) W 270 2,9 C 0,0 km/h (0 Bft)
11.05.2015 01:05 6,4 C 6,0 C 80 % 1025,7 hPa 0,0 mm 0,0 km/h (0 Bft) W 270 3,2 C 0,0 km/h (0 Bft)
11.05.2015 01:10 6,6 C 6,1 C 81 % 1025,7 hPa 0,0 mm 0,0 km/h (0 Bft) O 90 3,6 C 0,0 km/h (0 Bft)
11.05.2015 01:15 6,3 C 5,9 C 80 % 1025,6 hPa 0,0 mm 0,0 km/h (0 Bft) O 90 3,1 C 0,0 km/h (0 Bft)
11.05.2015 01:20 6,0 C 5,7 C 80 % 1025,6 hPa 0,0 mm 0,0 km/h (0 Bft) O 90 2,8 C 0,0 km/h (0 Bft)
11.05.2015 01:25 5,8 C 5,5 C 81 % 1025,6 hPa 0,0 mm 0,0 km/h (0 Bft) O 90 2,8 C 0,0 km/h (0 Bft)
11.05.2015 01:30 5,8 C 5,5 C 81 % 1025,6 hPa 0,0 mm 0,0 km/h (0 Bft) O 90 2,8 C 0,0 km/h (0 Bft)
11.05.2015 01:35 5,9 C 5,6 C 82 % 1025,5 hPa 0,0 mm 0,0 km/h (0 Bft) O 90 3,1 C 0,0 km/h (0 Bft)
11.05.2015 01:40 6,1 C 5,7 C 82 % 1025,5 hPa 0,0 mm 0,0 km/h (0 Bft) S 180 3,3 C 0,0 km/h (0 Bft)
11.05.2015 01:45 6,0 C 5,6 C 81 % 1025,5 hPa 0,0 mm 0,0 km/h (0 Bft) S 180 3,0 C 0,0 km/h (0 Bft)
11.05.2015 01:50 5,9 C 5,5 C 82 % 1025,5 hPa 0,0 mm 0,0 km/h (0 Bft) SW 225 3,1 C 0,0 km/h (0 Bft)
11.05.2015 01:55 5,7 C 5,4 C 82 % 1025,2 hPa 0,0 mm 0,0 km/h (0 Bft) SW 225 2,9 C 0,0 km/h (0 Bft)
11.05.2015 02:00 5,7 C 5,4 C 82 % 1025,2 hPa 0,0 mm 0,0 km/h (0 Bft) SO 135 2,9 C 0,0 km/h (0 Bft)
11.05.2015 02:05 5,6 C 5,3 C 82 % 1025,2 hPa 0,0 mm 0,0 km/h (0 Bft) SO 135 2,8 C 0,0 km/h (0 Bft)
11.05.2015 02:10 5,6 C 5,3 C 82 % 1025,2 hPa 0,0 mm 0,0 km/h (0 Bft) SO 135 2,8 C 0,0 km/h (0 Bft)
11.05.2015 02:15 5,5 C 5,2 C 82 % 1025,1 hPa 0,0 mm 0,0 km/h (0 Bft) SO 135 2,7 C 0,0 km/h (0 Bft)
11.05.2015 02:20 5,5 C 5,2 C 83 % 1025,1 hPa 0,0 mm 0,0 km/h (0 Bft) SO 135 2,8 C 0,0 km/h (0 Bft)
11.05.2015 02:25 5,6 C 5,2 C 83 % 1025,1 hPa 0,0 mm 0,0 km/h (0 Bft) SO 135 2,9 C 0,0 km/h (0 Bft)
11.05.2015 02:30 5,4 C 5,1 C 83 % 1025,1 hPa 0,0 mm 0,0 km/h (0 Bft) O-SO 112 2,7 C 0,0 km/h (0 Bft)
11.05.2015 02:35 5,3 C 5,0 C 83 % 1024,9 hPa 0,0 mm 0,0 km/h (0 Bft) O-SO 112 2,7 C 0,0 km/h (0 Bft)
11.05.2015 02:40 5,3 C 5,0 C 83 % 1024,9 hPa 0,0 mm 0,0 km/h (0 Bft) O-SO 112 2,7 C 0,0 km/h (0 Bft)
11.05.2015 02:45 5,3 C 5,0 C 83 % 1024,9 hPa 0,0 mm 0,0 km/h (0 Bft) O-SO 112 2,7 C 0,0 km/h (0 Bft)
11.05.2015 02:50 5,2 C 4,9 C 83 % 1024,9 hPa 0,0 mm 0,0 km/h (0 Bft) O-SO 112 2,6 C 0,0 km/h (0 Bft)
11.05.2015 02:55 5,2 C 4,9 C 83 % 1024,8 hPa 0,0 mm 0,0 km/h (0 Bft) O-SO 112 2,6 C 0,0 km/h (0 Bft)
11.05.2015 03:00 5,3 C 4,9 C 84 % 1024,8 hPa 0,0 mm 0,0 km/h (0 Bft) S-SO 157 2,8 C 0,0 km/h (0 Bft)
11.05.2015 03:05 5,2 C 4,8 C 84 % 1024,8 hPa 0,0 mm 0,0 km/h (0 Bft) S-SO 157 2,7 C 0,0 km/h (0 Bft)
11.05.2015 03:10 5,2 C 4,9 C 84 % 1024,8 hPa 0,0 mm 0,0 km/h (0 Bft) S-SO 157 2,7 C 0,0 km/h (0 Bft)
11.05.2015 03:15 5,3 C 5,0 C 84 % 1024,9 hPa 0,0 mm 0,0 km/h (0 Bft) SO 135 2,8 C 0,0 km/h (0 Bft)
11.05.2015 03:20 5,0 C 4,7 C 84 % 1024,9 hPa 0,0 mm 0,0 km/h (0 Bft) S-SO 157 2,5 C 0,0 km/h (0 Bft)
11.05.2015 03:25 5,3 C 4,9 C 84 % 1024,9 hPa 0,0 mm 0,0 km/h (0 Bft) O-SO 112 2,8 C 0,0 km/h (0 Bft)
11.05.2015 03:30 4,8 C 4,6 C 84 % 1024,9 hPa 0,0 mm 0,0 km/h (0 Bft) O-SO 112 2,3 C 0,0 km/h (0 Bft)
11.05.2015 03:35 4,8 C 4,5 C 84 % 1024,9 hPa 0,0 mm 0,0 km/h (0 Bft) SO 135 2,3 C 0,0 km/h (0 Bft)
11.05.2015 03:40 5,2 C 4,8 C 85 % 1024,9 hPa 0,0 mm 0,0 km/h (0 Bft) O 90 2,9 C 0,0 km/h (0 Bft)
11.05.2015 03:45 5,3 C 4,8 C 86 % 1024,9 hPa 0,0 mm 0,0 km/h (0 Bft) O-NO 67 3,2 C 0,0 km/h (0 Bft)
11.05.2015 03:50 5,0 C 4,7 C 86 % 1024,9 hPa 0,0 mm 0,0 km/h (0 Bft) O-NO 67 2,9 C 0,0 km/h (0 Bft)
11.05.2015 03:55 5,1 C 4,7 C 86 % 1024,8 hPa 0,0 mm 0,0 km/h (0 Bft) O-NO 67 3,0 C 0,0 km/h (0 Bft)
11.05.2015 04:00 5,1 C 4,7 C 86 % 1024,8 hPa 0,0 mm 0,0 km/h (0 Bft) SW 225 3,0 C 0,0 km/h (0 Bft)
11.05.2015 04:05 5,1 C 4,7 C 86 % 1024,8 hPa 0,0 mm 0,0 km/h (0 Bft) W-SW 247 3,0 C 0,0 km/h (0 Bft)
11.05.2015 04:10 4,8 C 4,5 C 86 % 1024,8 hPa 0,0 mm 0,0 km/h (0 Bft) W 270 2,7 C 0,0 km/h (0 Bft)
11.05.2015 04:15 4,7 C 4,5 C 86 % 1024,8 hPa 0,0 mm 0,0 km/h (0 Bft) NO 45 2,6 C 0,0 km/h (0 Bft)
11.05.2015 04:20 4,5 C 4,3 C 86 % 1024,8 hPa 0,0 mm 0,0 km/h (0 Bft) NO 45 2,4 C 0,0 km/h (0 Bft)
11.05.2015 04:25 4,5 C 4,2 C 85 % 1024,8 hPa 0,0 mm 0,0 km/h (0 Bft) NW 315 2,2 C 0,0 km/h (0 Bft)
11.05.2015 04:30 4,5 C 4,2 C 86 % 1024,8 hPa 0,0 mm 0,0 km/h (0 Bft) NW 315 2,4 C 0,0 km/h (0 Bft)
11.05.2015 04:35 4,7 C 4,3 C 86 % 1024,6 hPa 0,0 mm 0,0 km/h (0 Bft) O-NO 67 2,6 C 0,0 km/h (0 Bft)
11.05.2015 04:40 4,4 C 4,1 C 86 % 1024,6 hPa 0,0 mm 0,0 km/h (0 Bft) N-NW 337 2,3 C 0,0 km/h (0 Bft)
11.05.2015 04:45 4,6 C 4,2 C 86 % 1024,6 hPa 0,0 mm 0,0 km/h (0 Bft) NO 45 2,5 C 0,0 km/h (0 Bft)
11.05.2015 04:50 4,4 C 4,1 C 86 % 1024,6 hPa 0,0 mm 0,0 km/h (0 Bft) N-NO 22 2,3 C 0,0 km/h (0 Bft)
11.05.2015 04:55 4,5 C 4,1 C 86 % 1024,5 hPa 0,0 mm 0,0 km/h (0 Bft) O-NO 67 2,4 C 0,0 km/h (0 Bft)
11.05.2015 05:00 4,5 C 4,2 C 87 % 1024,5 hPa 0,0 mm 0,0 km/h (0 Bft) O-SO 112 2,5 C 0,0 km/h (0 Bft)
11.05.2015 05:05 4,2 C 3,9 C 87 % 1024,5 hPa 0,0 mm 0,0 km/h (0 Bft) O-SO 112 2,2 C 0,0 km/h (0 Bft)
11.05.2015 05:10 4,4 C 4,1 C 87 % 1024,5 hPa 0,0 mm 0,0 km/h (0 Bft) O-NO 67 2,4 C 0,0 km/h (0 Bft)
11.05.2015 05:15 4,1 C 3,9 C 87 % 1024,4 hPa 0,0 mm 0,0 km/h (0 Bft) O 90 2,1 C 0,0 km/h (0 Bft)
11.05.2015 05:20 4,3 C 4,0 C 87 % 1024,4 hPa 0,0 mm 0,0 km/h (0 Bft) O-SO 112 2,3 C 0,0 km/h (0 Bft)
11.05.2015 05:25 4,3 C 4,0 C 87 % 1024,4 hPa 0,0 mm 0,0 km/h (0 Bft) O-NO 67 2,3 C 0,0 km/h (0 Bft)
11.05.2015 05:30 4,3 C 4,0 C 87 % 1024,4 hPa 0,0 mm 0,0 km/h (0 Bft) O-SO 112 2,3 C 0,0 km/h (0 Bft)
11.05.2015 05:35 4,5 C 4,1 C 87 % 1024,6 hPa 0,0 mm 0,0 km/h (0 Bft) SO 135 2,5 C 0,0 km/h (0 Bft)
11.05.2015 05:40 4,7 C 4,3 C 88 % 1024,6 hPa 0,0 mm 0,0 km/h (0 Bft) SO 135 2,9 C 0,0 km/h (0 Bft)
11.05.2015 05:45 4,4 C 4,1 C 88 % 1024,6 hPa 0,0 mm 0,0 km/h (0 Bft) NO 45 2,6 C 0,0 km/h (0 Bft)
11.05.2015 05:50 4,1 C 3,9 C 87 % 1024,6 hPa 0,0 mm 0,0 km/h (0 Bft) O-SO 112 2,1 C 0,0 km/h (0 Bft)
11.05.2015 05:55 4,1 C 3,9 C 87 % 1024,5 hPa 0,0 mm 0,0 km/h (0 Bft) O-SO 112 2,1 C 0,0 km/h (0 Bft)
11.05.2015 06:00 4,3 C 4,0 C 87 % 1024,5 hPa 0,0 mm 0,0 km/h (0 Bft) O-SO 112 2,3 C 0,0 km/h (0 Bft)
11.05.2015 06:05 4,3 C 4,0 C 87 % 1024,5 hPa 0,0 mm 0,0 km/h (0 Bft) O-SO 112 2,3 C 0,0 km/h (0 Bft)
11.05.2015 06:10 4,6 C 4,6 C 88 % 1024,5 hPa 0,0 mm 0,0 km/h (0 Bft) O-SO 112 2,8 C 0,0 km/h (0 Bft)
11.05.2015 06:15 4,7 C 5,1 C 88 % 1024,4 hPa 0,0 mm 0,0 km/h (0 Bft) O 90 2,9 C 0,0 km/h (0 Bft)
11.05.2015 06:20 4,7 C 5,4 C 88 % 1024,4 hPa 0,0 mm 0,0 km/h (0 Bft) W 270 2,9 C 0,0 km/h (0 Bft)
11.05.2015 06:25 4,9 C 5,4 C 88 % 1024,4 hPa 0,0 mm 0,0 km/h (0 Bft) W-NW 292 3,1 C 0,0 km/h (0 Bft)
11.05.2015 06:30 5,0 C 6,0 C 84 % 1024,4 hPa 0,0 mm 0,0 km/h (0 Bft) NW 315 2,5 C 0,0 km/h (0 Bft)
11.05.2015 06:35 5,2 C 6,9 C 84 % 1024,2 hPa 0,0 mm 0,0 km/h (0 Bft) NW 315 2,7 C 0,0 km/h (0 Bft)
11.05.2015 06:40 5,6 C 8,9 C 84 % 1024,2 hPa 0,0 mm 0,0 km/h (0 Bft) NW 315 3,1 C 0,0 km/h (0 Bft)
11.05.2015 06:45 5,9 C 9,9 C 84 % 1024,2 hPa 0,0 mm 0,0 km/h (0 Bft) NW 315 3,4 C 0,0 km/h (0 Bft)
11.05.2015 06:50 6,5 C 11,3 C 83 % 1024,2 hPa 0,0 mm 0,0 km/h (0 Bft) W 270 3,8 C 0,0 km/h (0 Bft)
11.05.2015 06:55 6,8 C 11,9 C 83 % 1024,1 hPa 0,0 mm 0,0 km/h (0 Bft) N-NW 337 4,1 C 0,0 km/h (0 Bft)
11.05.2015 07:00 7,6 C 13,1 C 83 % 1024,1 hPa 0,0 mm 0,0 km/h (0 Bft) N-NO 22 4,9 C 0,0 km/h (0 Bft)
11.05.2015 07:05 7,8 C 13,7 C 87 % 1024,1 hPa 0,0 mm 0,0 km/h (0 Bft) N-NO 22 5,8 C 0,0 km/h (0 Bft)
11.05.2015 07:10 8,3 C 14,3 C 81 % 1024,1 hPa 0,0 mm 0,0 km/h (0 Bft) N-NO 22 5,2 C 0,0 km/h (0 Bft)
11.05.2015 07:15 8,4 C 15,2 C 85 % 1024,2 hPa 0,0 mm 0,0 km/h (0 Bft) N 360 6,0 C 0,0 km/h (0 Bft)
11.05.2015 07:20 9,3 C 16,8 C 80 % 1024,2 hPa 0,0 mm 0,0 km/h (0 Bft) NW 315 6,0 C 0,0 km/h (0 Bft)
11.05.2015 07:25 9,3 C 17,2 C 79 % 1024,2 hPa 0,0 mm 0,0 km/h (0 Bft) NO 45 5,8 C 0,0 km/h (0 Bft)
11.05.2015 07:30 9,4 C 17,2 C 79 % 1024,2 hPa 0,0 mm 0,0 km/h (0 Bft) NO 45 5,9 C 0,0 km/h (0 Bft)
11.05.2015 07:35 9,6 C 17,1 C 78 % 1024,1 hPa 0,0 mm 0,0 km/h (0 Bft) O 90 6,0 C 0,0 km/h (0 Bft)
11.05.2015 07:40 10,3 C 17,6 C 78 % 1024,1 hPa 0,0 mm 0,0 km/h (0 Bft) O-NO 67 6,6 C 0,0 km/h (0 Bft)
11.05.2015 07:45 11,0 C 18,5 C 77 % 1024,1 hPa 0,0 mm 0,0 km/h (0 Bft) NO 45 7,1 C 0,0 km/h (0 Bft)
11.05.2015 07:50 12,3 C 20,0 C 76 % 1024,1 hPa 0,0 mm 0,0 km/h (0 Bft) SO 135 8,2 C 0,0 km/h (0 Bft)
11.05.2015 07:55 12,4 C 20,8 C 75 % 1024,2 hPa 0,0 mm 0,0 km/h (0 Bft) W-NW 292 8,1 C 0,0 km/h (0 Bft)
11.05.2015 08:00 12,9 C 21,1 C 74 % 1024,2 hPa 0,0 mm 0,0 km/h (0 Bft) N-NO 22 8,4 C 0,0 km/h (0 Bft)
11.05.2015 08:05 12,8 C 21,7 C 73 % 1024,2 hPa 0,0 mm 0,0 km/h (0 Bft) N-NO 22 8,1 C 0,0 km/h (0 Bft)
11.05.2015 08:10 12,8 C 21,8 C 72 % 1024,2 hPa 0,0 mm 0,0 km/h (0 Bft) N-NO 22 7,9 C 0,0 km/h (0 Bft)
11.05.2015 08:15 13,1 C 22,0 C 70 % 1024,2 hPa 0,0 mm 0,0 km/h (0 Bft) N-NO 22 7,8 C 0,0 km/h (0 Bft)
11.05.2015 08:20 13,7 C 23,2 C 70 % 1024,2 hPa 0,0 mm 0,0 km/h (0 Bft) W 270 8,3 C 0,0 km/h (0 Bft)
11.05.2015 08:25 13,9 C 23,9 C 69 % 1024,2 hPa 0,0 mm 0,0 km/h (0 Bft) O-SO 112 8,3 C 0,0 km/h (0 Bft)
11.05.2015 08:30 14,1 C 24,2 C 68 % 1024,2 hPa 0,0 mm 0,0 km/h (0 Bft) O 90 8,3 C 0,0 km/h (0 Bft)
11.05.2015 08:35 14,7 C 24,4 C 68 % 1024,1 hPa 0,0 mm 0,0 km/h (0 Bft) O 90 8,9 C 0,0 km/h (0 Bft)
11.05.2015 08:40 15,2 C 24,5 C 65 % 1024,1 hPa 0,0 mm 0,0 km/h (0 Bft) O-NO 67 8,7 C 0,0 km/h (0 Bft)
11.05.2015 08:45 15,6 C 24,7 C 65 % 1024,1 hPa 0,0 mm 0,0 km/h (0 Bft) O-NO 67 9,0 C 0,0 km/h (0 Bft)
11.05.2015 08:50 16,1 C 24,6 C 62 % 1024,1 hPa 0,0 mm 0,3 km/h (0 Bft) O-NO 67 8,8 C 0,0 km/h (0 Bft)
11.05.2015 08:55 16,1 C 24,6 C 62 % 1024,1 hPa 0,0 mm 0,5 km/h (0 Bft) O-NO 67 8,8 C 0,0 km/h (0 Bft)
11.05.2015 09:00 16,7 C 24,6 C 61 % 1024,1 hPa 0,0 mm 1,8 km/h (1 Bft) N-NO 22 9,1 C 7,3 km/h (2 Bft)
11.05.2015 09:05 16,9 C 24,7 C 61 % 1024,1 hPa 0,0 mm 2,6 km/h (1 Bft) N-NW 337 9,3 C 7,3 km/h (2 Bft)
11.05.2015 09:10 17,2 C 24,9 C 60 % 1024,1 hPa 0,0 mm 2,6 km/h (1 Bft) N-NO 22 9,4 C 5,2 km/h (1 Bft)
11.05.2015 09:15 17,2 C 24,6 C 59 % 1024,1 hPa 0,0 mm 2,3 km/h (1 Bft) O 90 9,1 C 4,9 km/h (1 Bft)
11.05.2015 09:20 17,5 C 24,2 C 59 % 1024,1 hPa 0,0 mm 3,4 km/h (1 Bft) NO 45 9,4 C 8,8 km/h (2 Bft)
11.05.2015 09:25 17,8 C 24,4 C 59 % 1024,1 hPa 0,0 mm 4,1 km/h (1 Bft) N-NW 337 9,7 C 8,0 km/h (2 Bft)
11.05.2015 09:30 18,0 C 24,3 C 57 % 1024,1 hPa 0,0 mm 4,7 km/h (1 Bft) O-NO 67 9,4 C 9,1 km/h (2 Bft)
11.05.2015 09:35 18,1 C 24,2 C 54 % 1024,4 hPa 0,0 mm 5,2 km/h (1 Bft) O-SO 112 8,6 C 4,1 km/h (1 Bft)
11.05.2015 09:40 18,3 C 24,4 C 55 % 1024,4 hPa 0,0 mm 3,6 km/h (1 Bft) O-NO 67 9,1 C 4,9 km/h (1 Bft)
11.05.2015 09:45 18,4 C 24,4 C 55 % 1024,4 hPa 0,0 mm 3,4 km/h (1 Bft) N-NO 22 9,2 C 4,7 km/h (1 Bft)
11.05.2015 09:50 18,4 C 24,9 C 55 % 1024,4 hPa 0,0 mm 3,9 km/h (1 Bft) O-NO 67 9,2 C 3,6 km/h (1 Bft)
11.05.2015 09:55 18,4 C 24,8 C 54 % 1024,6 hPa 0,0 mm 3,6 km/h (1 Bft) O-NO 67 8,9 C 2,8 km/h (1 Bft)
11.05.2015 10:00 18,7 C 25,0 C 54 % 1024,6 hPa 0,0 mm 3,4 km/h (1 Bft) O 90 9,2 C 9,3 km/h (2 Bft)
11.05.2015 10:05 19,1 C 25,2 C 55 % 1024,6 hPa 0,0 mm 2,8 km/h (1 Bft) O-NO 67 9,8 C 5,7 km/h (1 Bft)
11.05.2015 10:10 19,4 C 25,6 C 53 % 1024,6 hPa 0,0 mm 3,4 km/h (1 Bft) N-NO 22 9,6 C 5,4 km/h (1 Bft)
11.05.2015 10:15 19,5 C 25,6 C 53 % 1024,7 hPa 0,0 mm 4,4 km/h (1 Bft) NO 45 9,7 C 12,9 km/h (3 Bft)
11.05.2015 10:20 19,3 C 25,2 C 52 % 1024,7 hPa 0,0 mm 5,4 km/h (1 Bft) N 360 9,2 C 11,7 km/h (2 Bft)
11.05.2015 10:25 19,3 C 25,0 C 51 % 1024,7 hPa 0,0 mm 7,0 km/h (2 Bft) NO 45 8,9 C 14,0 km/h (3 Bft)
11.05.2015 10:30 19,4 C 24,5 C 50 % 1024,7 hPa 0,0 mm 8,3 km/h (2 Bft) O 90 8,7 C 16,1 km/h (3 Bft)
11.05.2015 10:35 19,4 C 24,4 C 51 % 1024,9 hPa 0,0 mm 8,5 km/h (2 Bft) NO 45 9,0 C 14,2 km/h (3 Bft)
11.05.2015 10:40 19,3 C 24,4 C 51 % 1024,9 hPa 0,0 mm 7,0 km/h (2 Bft) NO 45 8,9 C 5,2 km/h (1 Bft)
11.05.2015 10:45 19,5 C 24,6 C 52 % 1024,9 hPa 0,0 mm 7,3 km/h (2 Bft) NO 45 9,4 C 10,9 km/h (2 Bft)
11.05.2015 10:50 19,7 C 24,7 C 52 % 1024,9 hPa 0,0 mm 7,0 km/h (2 Bft) O 90 9,6 C 8,0 km/h (2 Bft)
11.05.2015 10:55 20,2 C 25,1 C 52 % 1025,1 hPa 0,0 mm 6,2 km/h (2 Bft) O 90 10,0 C 5,2 km/h (1 Bft)
11.05.2015 11:00 20,3 C 25,3 C 52 % 1025,1 hPa 0,0 mm 6,0 km/h (2 Bft) O-NO 67 10,1 C 10,4 km/h (2 Bft)
11.05.2015 11:05 20,2 C 25,1 C 50 % 1025,1 hPa 0,0 mm 6,0 km/h (2 Bft) SO 135 9,4 C 5,7 km/h (1 Bft)
11.05.2015 11:10 20,1 C 24,9 C 49 % 1025,1 hPa 0,0 mm 6,7 km/h (2 Bft) O 90 9,0 C 10,6 km/h (2 Bft)
11.05.2015 11:15 20,2 C 24,9 C 50 % 1025,1 hPa 0,0 mm 7,0 km/h (2 Bft) O-NO 67 9,4 C 4,9 km/h (1 Bft)
11.05.2015 11:20 20,2 C 25,2 C 49 % 1025,1 hPa 0,0 mm 6,2 km/h (2 Bft) SO 135 9,1 C 16,6 km/h (3 Bft)
11.05.2015 11:25 20,2 C 25,1 C 48 % 1025,1 hPa 0,0 mm 6,7 km/h (2 Bft) NO 45 8,8 C 12,7 km/h (3 Bft)
11.05.2015 11:30 20,3 C 24,9 C 48 % 1025,1 hPa 0,0 mm 8,0 km/h (2 Bft) SO 135 8,9 C 6,7 km/h (2 Bft)
11.05.2015 11:35 20,4 C 24,9 C 48 % 1025,0 hPa 0,0 mm 8,0 km/h (2 Bft) O-NO 67 9,0 C 11,4 km/h (2 Bft)
11.05.2015 11:40 20,6 C 24,9 C 47 % 1025,0 hPa 0,0 mm 8,8 km/h (2 Bft) NO 45 8,9 C 4,9 km/h (1 Bft)
11.05.2015 11:45 20,8 C 24,9 C 48 % 1025,0 hPa 0,0 mm 9,6 km/h (2 Bft) S 180 9,4 C 7,8 km/h (2 Bft)
11.05.2015 11:50 21,0 C 25,2 C 46 % 1025,0 hPa 0,0 mm 8,0 km/h (2 Bft) N-NO 22 8,9 C 11,7 km/h (2 Bft)
11.05.2015 11:55 21,0 C 25,3 C 46 % 1025,2 hPa 0,0 mm 6,5 km/h (2 Bft) N-NW 337 8,9 C 7,0 km/h (2 Bft)
11.05.2015 12:00 21,0 C 25,5 C 46 % 1025,2 hPa 0,0 mm 6,2 km/h (2 Bft) NO 45 8,9 C 7,0 km/h (2 Bft)
11.05.2015 12:05 21,0 C 25,5 C 46 % 1025,2 hPa 0,0 mm 6,7 km/h (2 Bft) O-SO 112 8,9 C 9,1 km/h (2 Bft)
11.05.2015 12:10 21,2 C 25,4 C 45 % 1025,2 hPa 0,0 mm 8,8 km/h (2 Bft) O-NO 67 8,8 C 20,7 km/h (4 Bft)
11.05.2015 12:15 21,2 C 25,5 C 45 % 1025,2 hPa 0,0 mm 8,8 km/h (2 Bft) N-NO 22 8,8 C 12,4 km/h (3 Bft)
11.05.2015 12:20 21,8 C 26,2 C 44 % 1025,2 hPa 0,0 mm 7,8 km/h (2 Bft) N-NO 22 9,0 C 16,1 km/h (3 Bft)
11.05.2015 12:25 21,6 C 26,1 C 44 % 1025,2 hPa 0,0 mm 7,5 km/h (2 Bft) N-NO 22 8,8 C 5,4 km/h (1 Bft)
11.05.2015 12:30 21,9 C 26,6 C 44 % 1025,2 hPa 0,0 mm 7,3 km/h (2 Bft) O-NO 67 9,1 C 7,0 km/h (2 Bft)
11.05.2015 12:35 21,9 C 26,4 C 42 % 1024,8 hPa 0,0 mm 6,7 km/h (2 Bft) O-NO 67 8,4 C 6,2 km/h (2 Bft)
11.05.2015 12:40 21,9 C 26,3 C 42 % 1024,8 hPa 0,0 mm 8,0 km/h (2 Bft) O-NO 67 8,4 C 12,2 km/h (2 Bft)
11.05.2015 12:45 21,9 C 26,1 C 43 % 1024,8 hPa 0,0 mm 8,0 km/h (2 Bft) N-NW 337 8,7 C 6,7 km/h (2 Bft)
11.05.2015 12:50 22,0 C 25,6 C 42 % 1024,8 hPa 0,0 mm 8,8 km/h (2 Bft) NO 45 8,5 C 13,2 km/h (3 Bft)
11.05.2015 12:55 21,9 C 25,3 C 42 % 1024,6 hPa 0,0 mm 8,3 km/h (2 Bft) NO 45 8,4 C 12,7 km/h (3 Bft)
11.05.2015 13:00 21,9 C 24,8 C 41 % 1024,6 hPa 0,0 mm 8,0 km/h (2 Bft) NO 45 8,0 C 9,6 km/h (2 Bft)
11.05.2015 13:05 21,9 C 24,8 C 40 % 1024,6 hPa 0,0 mm 7,8 km/h (2 Bft) NO 45 7,7 C 11,4 km/h (2 Bft)
11.05.2015 13:10 21,9 C 24,8 C 39 % 1024,6 hPa 0,0 mm 6,0 km/h (2 Bft) O 90 7,3 C 4,1 km/h (1 Bft)
11.05.2015 13:15 22,1 C 25,1 C 39 % 1024,4 hPa 0,0 mm 5,4 km/h (1 Bft) S 180 7,5 C 5,4 km/h (1 Bft)
11.05.2015 13:20 22,0 C 25,5 C 37 % 1024,4 hPa 0,0 mm 4,9 km/h (1 Bft) NO 45 6,6 C 7,8 km/h (2 Bft)
11.05.2015 13:25 22,1 C 26,0 C 38 % 1024,4 hPa 0,0 mm 4,7 km/h (1 Bft) NO 45 7,1 C 6,2 km/h (2 Bft)
11.05.2015 13:30 22,6 C 27,1 C 38 % 1024,4 hPa 0,0 mm 3,9 km/h (1 Bft) SO 135 7,6 C 6,0 km/h (2 Bft)
11.05.2015 13:35 22,7 C 27,4 C 38 % 1024,2 hPa 0,0 mm 3,4 km/h (1 Bft) O-NO 67 7,6 C 9,8 km/h (2 Bft)
11.05.2015 13:40 23,0 C 27,7 C 38 % 1024,2 hPa 0,0 mm 4,1 km/h (1 Bft) W 270 7,9 C 6,7 km/h (2 Bft)
11.05.2015 13:45 23,2 C 27,9 C 37 % 1024,2 hPa 0,0 mm 5,2 km/h (1 Bft) O-SO 112 7,7 C 4,1 km/h (1 Bft)
11.05.2015 13:50 22,9 C 27,8 C 37 % 1024,2 hPa 0,0 mm 6,7 km/h (2 Bft) W-NW 292 7,4 C 3,9 km/h (1 Bft)
11.05.2015 13:55 23,3 C 28,3 C 36 % 1023,9 hPa 0,0 mm 5,4 km/h (1 Bft) NO 45 7,4 C 0,0 km/h (0 Bft)
11.05.2015 14:00 23,2 C 28,4 C 35 % 1023,9 hPa 0,0 mm 4,7 km/h (1 Bft) N-NO 22 6,9 C 6,0 km/h (2 Bft)
11.05.2015 14:05 23,1 C 28,1 C 35 % 1023,9 hPa 0,0 mm 6,2 km/h (2 Bft) N-NO 22 6,8 C 5,4 km/h (1 Bft)
11.05.2015 14:10 23,5 C 28,4 C 37 % 1023,9 hPa 0,0 mm 5,7 km/h (1 Bft) NW 315 8,0 C 6,2 km/h (2 Bft)
11.05.2015 14:15 24,0 C 28,8 C 37 % 1023,9 hPa 0,0 mm 3,9 km/h (1 Bft) N-NW 337 8,4 C 5,4 km/h (1 Bft)
11.05.2015 14:20 24,2 C 29,0 C 35 % 1023,9 hPa 0,0 mm 4,4 km/h (1 Bft) NO 45 7,8 C 7,0 km/h (2 Bft)
11.05.2015 14:25 23,9 C 28,7 C 35 % 1023,9 hPa 0,0 mm 4,7 km/h (1 Bft) NO 45 7,5 C 7,8 km/h (2 Bft)
11.05.2015 14:30 24,0 C 28,8 C 35 % 1023,9 hPa 0,0 mm 5,2 km/h (1 Bft) O-NO 67 7,6 C 12,2 km/h (2 Bft)
11.05.2015 14:35 23,8 C 28,8 C 35 % 1023,8 hPa 0,0 mm 5,2 km/h (1 Bft) O-SO 112 7,4 C 7,0 km/h (2 Bft)
11.05.2015 14:40 24,2 C 29,1 C 37 % 1023,8 hPa 0,0 mm 5,7 km/h (1 Bft) N-NW 337 8,6 C 11,4 km/h (2 Bft)
11.05.2015 14:45 24,3 C 29,0 C 38 % 1023,8 hPa 0,0 mm 6,2 km/h (2 Bft) NW 315 9,1 C 14,8 km/h (3 Bft)
11.05.2015 14:50 24,5 C 28,7 C 38 % 1023,8 hPa 0,0 mm 8,0 km/h (2 Bft) N 360 9,2 C 10,4 km/h (2 Bft)
11.05.2015 14:55 24,6 C 28,6 C 37 % 1023,7 hPa 0,0 mm 8,5 km/h (2 Bft) N-NO 22 8,9 C 14,2 km/h (3 Bft)
11.05.2015 15:00 24,4 C 28,6 C 38 % 1023,7 hPa 0,0 mm 7,3 km/h (2 Bft) W-SW 247 9,2 C 4,4 km/h (1 Bft)
11.05.2015 15:05 24,6 C 28,8 C 37 % 1023,7 hPa 0,0 mm 7,0 km/h (2 Bft) NO 45 8,9 C 11,7 km/h (2 Bft)
11.05.2015 15:10 24,6 C 28,9 C 37 % 1023,7 hPa 0,0 mm 6,2 km/h (2 Bft) N-NO 22 8,9 C 8,0 km/h (2 Bft)
11.05.2015 15:15 24,6 C 28,8 C 36 % 1023,8 hPa 0,0 mm 6,5 km/h (2 Bft) NO 45 8,5 C 10,6 km/h (2 Bft)
11.05.2015 15:20 24,2 C 28,3 C 35 % 1023,8 hPa 0,0 mm 7,8 km/h (2 Bft) W 270 7,8 C 8,5 km/h (2 Bft)
11.05.2015 15:25 24,1 C 28,0 C 35 % 1023,8 hPa 0,0 mm 7,5 km/h (2 Bft) NW 315 7,7 C 0,0 km/h (0 Bft)
11.05.2015 15:30 24,2 C 28,5 C 33 % 1023,8 hPa 0,0 mm 4,9 km/h (1 Bft) N 360 6,9 C 8,0 km/h (2 Bft)
11.05.2015 15:35 24,2 C 28,6 C 34 % 1023,5 hPa 0,0 mm 4,1 km/h (1 Bft) S-SO 157 7,3 C 3,9 km/h (1 Bft)
11.05.2015 15:40 23,9 C 29,0 C 34 % 1023,5 hPa 0,0 mm 4,1 km/h (1 Bft) NO 45 7,1 C 5,2 km/h (1 Bft)
11.05.2015 15:45 24,0 C 29,1 C 35 % 1023,5 hPa 0,0 mm 2,3 km/h (1 Bft) SO 135 7,6 C 6,2 km/h (2 Bft)
11.05.2015 15:50 23,6 C 28,8 C 33 % 1023,5 hPa 0,0 mm 2,6 km/h (1 Bft) NO 45 6,4 C 0,0 km/h (0 Bft)
11.05.2015 15:55 23,6 C 28,8 C 34 % 1023,2 hPa 0,0 mm 2,6 km/h (1 Bft) NW 315 6,8 C 4,1 km/h (1 Bft)
11.05.2015 16:00 23,7 C 28,8 C 34 % 1023,2 hPa 0,0 mm 2,3 km/h (1 Bft) N 360 6,9 C 4,7 km/h (1 Bft)
11.05.2015 16:05 23,6 C 28,6 C 35 % 1023,2 hPa 0,0 mm 2,8 km/h (1 Bft) NO 45 7,2 C 0,0 km/h (0 Bft)
11.05.2015 16:10 23,4 C 28,2 C 36 % 1023,2 hPa 0,0 mm 3,9 km/h (1 Bft) W-NW 292 7,5 C 8,3 km/h (2 Bft)
11.05.2015 16:15 23,3 C 27,9 C 35 % 1023,3 hPa 0,0 mm 5,2 km/h (1 Bft) NW 315 7,0 C 4,7 km/h (1 Bft)
11.05.2015 16:20 23,4 C 27,6 C 36 % 1023,3 hPa 0,0 mm 7,0 km/h (2 Bft) NW 315 7,5 C 8,8 km/h (2 Bft)
11.05.2015 16:25 23,3 C 27,4 C 35 % 1023,3 hPa 0,0 mm 5,7 km/h (1 Bft) NO 45 7,0 C 7,8 km/h (2 Bft)
11.05.2015 16:30 23,0 C 27,0 C 36 % 1023,3 hPa 0,0 mm 6,0 km/h (2 Bft) O-NO 67 7,1 C 6,2 km/h (2 Bft)
11.05.2015 16:35 23,0 C 27,2 C 36 % 1023,2 hPa 0,0 mm 4,7 km/h (1 Bft) W-NW 292 7,1 C 3,9 km/h (1 Bft)
11.05.2015 16:40 23,2 C 27,6 C 37 % 1023,2 hPa 0,0 mm 3,9 km/h (1 Bft) O-NO 67 7,7 C 4,9 km/h (1 Bft)
11.05.2015 16:45 23,1 C 27,3 C 35 % 1023,2 hPa 0,0 mm 4,7 km/h (1 Bft) NO 45 6,8 C 2,8 km/h (1 Bft)
11.05.2015 16:50 23,0 C 26,2 C 35 % 1023,2 hPa 0,0 mm 5,7 km/h (1 Bft) NW 315 6,7 C 0,0 km/h (0 Bft)
11.05.2015 16:55 22,9 C 25,9 C 37 % 1023,1 hPa 0,0 mm 5,4 km/h (1 Bft) NW 315 7,4 C 5,4 km/h (1 Bft)
11.05.2015 17:00 22,9 C 25,4 C 37 % 1023,1 hPa 0,0 mm 3,9 km/h (1 Bft) NW 315 7,4 C 4,7 km/h (1 Bft)
11.05.2015 17:05 22,8 C 25,1 C 38 % 1023,1 hPa 0,0 mm 4,4 km/h (1 Bft) N-NO 22 7,7 C 6,5 km/h (2 Bft)
11.05.2015 17:10 22,6 C 24,7 C 38 % 1023,1 hPa 0,0 mm 4,9 km/h (1 Bft) O-NO 67 7,6 C 6,7 km/h (2 Bft)
11.05.2015 17:15 22,5 C 24,5 C 38 % 1022,9 hPa 0,0 mm 5,2 km/h (1 Bft) O-NO 67 7,5 C 3,1 km/h (1 Bft)
11.05.2015 17:20 22,5 C 24,2 C 38 % 1022,9 hPa 0,0 mm 5,2 km/h (1 Bft) N-NW 337 7,5 C 8,0 km/h (2 Bft)
11.05.2015 17:25 22,5 C 24,2 C 38 % 1022,9 hPa 0,0 mm 5,7 km/h (1 Bft) NW 315 7,5 C 9,8 km/h (2 Bft)
11.05.2015 17:30 22,6 C 24,2 C 39 % 1022,9 hPa 0,0 mm 6,0 km/h (2 Bft) N 360 7,9 C 9,6 km/h (2 Bft)
11.05.2015 17:35 22,7 C 24,1 C 39 % 1022,9 hPa 0,0 mm 5,7 km/h (1 Bft) NW 315 8,0 C 5,2 km/h (1 Bft)
11.05.2015 17:40 22,6 C 24,0 C 39 % 1022,9 hPa 0,0 mm 5,2 km/h (1 Bft) W-SW 247 7,9 C 6,5 km/h (2 Bft)
11.05.2015 17:45 22,6 C 24,0 C 39 % 1022,9 hPa 0,0 mm 3,6 km/h (1 Bft) NW 315 7,9 C 5,7 km/h (1 Bft)
11.05.2015 17:50 22,5 C 24,0 C 39 % 1022,9 hPa 0,0 mm 3,4 km/h (1 Bft) NO 45 7,8 C 8,5 km/h (2 Bft)
11.05.2015 17:55 22,5 C 23,9 C 39 % 1022,8 hPa 0,0 mm 4,4 km/h (1 Bft) NO 45 7,8 C 7,5 km/h (2 Bft)
11.05.2015 18:00 22,4 C 23,7 C 39 % 1022,8 hPa 0,0 mm 4,9 km/h (1 Bft) O-NO 67 7,8 C 2,8 km/h (1 Bft)
11.05.2015 18:05 22,4 C 23,7 C 39 % 1022,8 hPa 0,0 mm 3,9 km/h (1 Bft) N-NO 22 7,8 C 0,0 km/h (0 Bft)
11.05.2015 18:10 22,3 C 23,7 C 39 % 1022,8 hPa 0,0 mm 3,4 km/h (1 Bft) NO 45 7,7 C 4,9 km/h (1 Bft)
11.05.2015 18:15 22,2 C 23,5 C 39 % 1022,9 hPa 0,0 mm 4,4 km/h (1 Bft) O-NO 67 7,6 C 3,9 km/h (1 Bft)
11.05.2015 18:20 21,8 C 23,3 C 41 % 1022,9 hPa 0,0 mm 4,4 km/h (1 Bft) NO 45 8,0 C 12,7 km/h (3 Bft)
11.05.2015 18:25 21,5 C 22,9 C 42 % 1022,9 hPa 0,0 mm 4,7 km/h (1 Bft) O 90 8,0 C 3,6 km/h (1 Bft)
11.05.2015 18:30 21,3 C 22,4 C 41 % 1022,9 hPa 0,0 mm 4,4 km/h (1 Bft) O-SO 112 7,5 C 0,0 km/h (0 Bft)
11.05.2015 18:35 21,0 C 22,1 C 43 % 1022,7 hPa 0,0 mm 1,6 km/h (1 Bft) O-SO 112 7,9 C 0,0 km/h (0 Bft)
11.05.2015 18:40 20,7 C 21,9 C 45 % 1022,7 hPa 0,0 mm 0,3 km/h (0 Bft) O-SO 112 8,3 C 0,0 km/h (0 Bft)
11.05.2015 18:45 20,5 C 21,7 C 45 % 1022,7 hPa 0,0 mm 0,3 km/h (0 Bft) SO 135 8,2 C 0,0 km/h (0 Bft)
11.05.2015 18:50 20,2 C 21,5 C 46 % 1022,7 hPa 0,0 mm 0,3 km/h (0 Bft) SO 135 8,2 C 0,0 km/h (0 Bft)
11.05.2015 18:55 20,2 C 21,3 C 46 % 1022,6 hPa 0,0 mm 0,3 km/h (0 Bft) SO 135 8,2 C 0,0 km/h (0 Bft)
11.05.2015 19:00 20,0 C 21,2 C 47 % 1022,6 hPa 0,0 mm 0,3 km/h (0 Bft) S 180 8,3 C 0,0 km/h (0 Bft)
11.05.2015 19:05 19,6 C 21,0 C 50 % 1022,6 hPa 0,0 mm 0,3 km/h (0 Bft) S 180 8,9 C 0,0 km/h (0 Bft)
11.05.2015 19:10 19,1 C 20,7 C 50 % 1022,6 hPa 0,0 mm 0,3 km/h (0 Bft) S 180 8,4 C 0,0 km/h (0 Bft)
11.05.2015 19:15 18,9 C 20,4 C 51 % 1022,8 hPa 0,0 mm 0,5 km/h (0 Bft) SW 225 8,5 C 3,1 km/h (1 Bft)
11.05.2015 19:20 19,0 C 20,2 C 52 % 1022,8 hPa 0,0 mm 0,8 km/h (0 Bft) S-SW 202 8,9 C 3,1 km/h (1 Bft)
11.05.2015 19:25 18,6 C 20,1 C 54 % 1022,8 hPa 0,0 mm 2,1 km/h (1 Bft) W-SW 247 9,1 C 5,2 km/h (1 Bft)
11.05.2015 19:30 18,8 C 20,2 C 52 % 1022,8 hPa 0,0 mm 2,1 km/h (1 Bft) O-SO 112 8,7 C 2,6 km/h (1 Bft)
11.05.2015 19:35 18,8 C 20,3 C 52 % 1022,6 hPa 0,0 mm 0,8 km/h (0 Bft) O-SO 112 8,7 C 0,0 km/h (0 Bft)
11.05.2015 19:40 19,1 C 20,9 C 50 % 1022,6 hPa 0,0 mm 0,0 km/h (0 Bft) O-SO 112 8,4 C 0,0 km/h (0 Bft)
11.05.2015 19:45 19,1 C 21,3 C 50 % 1022,6 hPa 0,0 mm 0,0 km/h (0 Bft) O-SO 112 8,4 C 0,0 km/h (0 Bft)
11.05.2015 19:50 18,9 C 22,0 C 52 % 1022,6 hPa 0,0 mm 0,0 km/h (0 Bft) S-SO 157 8,8 C 0,0 km/h (0 Bft)
11.05.2015 19:55 18,8 C 22,2 C 53 % 1022,3 hPa 0,0 mm 0,0 km/h (0 Bft) S-SW 202 9,0 C 2,8 km/h (1 Bft)
11.05.2015 20:00 18,0 C 22,0 C 55 % 1022,3 hPa 0,0 mm 0,0 km/h (0 Bft) S 180 8,8 C 0,0 km/h (0 Bft)
11.05.2015 20:05 17,7 C 21,7 C 55 % 1022,3 hPa 0,0 mm 0,0 km/h (0 Bft) S-SO 157 8,5 C 0,0 km/h (0 Bft)
11.05.2015 20:10 18,0 C 21,2 C 54 % 1022,3 hPa 0,0 mm 0,3 km/h (0 Bft) S-SO 157 8,6 C 2,8 km/h (1 Bft)
11.05.2015 20:15 18,1 C 20,8 C 51 % 1022,4 hPa 0,0 mm 0,5 km/h (0 Bft) S 180 7,8 C 0,0 km/h (0 Bft)
11.05.2015 20:20 17,5 C 20,3 C 52 % 1022,4 hPa 0,0 mm 0,8 km/h (0 Bft) S-SO 157 7,5 C 2,8 km/h (1 Bft)
11.05.2015 20:25 17,5 C 19,9 C 53 % 1022,4 hPa 0,0 mm 0,5 km/h (0 Bft) S-SO 157 7,8 C 0,0 km/h (0 Bft)
11.05.2015 20:30 16,7 C 19,1 C 55 % 1022,4 hPa 0,0 mm 1,0 km/h (0 Bft) S-SO 157 7,6 C 4,4 km/h (1 Bft)
11.05.2015 20:35 15,8 C 18,5 C 57 % 1022,3 hPa 0,0 mm 2,1 km/h (1 Bft) S-SO 157 7,3 C 4,4 km/h (1 Bft)
11.05.2015 20:40 14,9 C 17,5 C 59 % 1022,3 hPa 0,0 mm 1,8 km/h (1 Bft) N-NW 337 7,0 C 0,0 km/h (0 Bft)
11.05.2015 20:45 14,9 C 16,5 C 59 % 1022,3 hPa 0,0 mm 0,8 km/h (0 Bft) SO 135 7,0 C 0,0 km/h (0 Bft)
11.05.2015 20:50 14,8 C 16,0 C 59 % 1022,3 hPa 0,0 mm 0,8 km/h (0 Bft) O-SO 112 6,9 C 3,4 km/h (1 Bft)
11.05.2015 20:55 14,4 C 15,5 C 59 % 1022,6 hPa 0,0 mm 0,8 km/h (0 Bft) SO 135 6,5 C 0,0 km/h (0 Bft)
11.05.2015 21:00 14,3 C 15,0 C 60 % 1022,6 hPa 0,0 mm 0,3 km/h (0 Bft) SO 135 6,6 C 0,0 km/h (0 Bft)
11.05.2015 21:05 14,1 C 14,9 C 60 % 1022,6 hPa 0,0 mm 0,0 km/h (0 Bft) SO 135 6,5 C 0,0 km/h (0 Bft)
11.05.2015 21:10 13,5 C 14,2 C 60 % 1022,6 hPa 0,0 mm 0,3 km/h (0 Bft) SO 135 5,9 C 2,8 km/h (1 Bft)
11.05.2015 21:15 13,0 C 13,7 C 62 % 1022,6 hPa 0,0 mm 0,3 km/h (0 Bft) S-SO 157 5,9 C 0,0 km/h (0 Bft)
11.05.2015 21:20 12,7 C 13,2 C 63 % 1022,6 hPa 0,0 mm 0,5 km/h (0 Bft) O-SO 112 5,8 C 0,0 km/h (0 Bft)
11.05.2015 21:25 12,7 C 12,8 C 64 % 1022,6 hPa 0,0 mm 0,3 km/h (0 Bft) O-SO 112 6,1 C 0,0 km/h (0 Bft)
11.05.2015 21:30 12,6 C 12,5 C 64 % 1022,6 hPa 0,0 mm 0,0 km/h (0 Bft) O-SO 112 6,0 C 0,0 km/h (0 Bft)
11.05.2015 21:35 12,7 C 12,5 C 66 % 1022,5 hPa 0,0 mm 0,8 km/h (0 Bft) O-SO 112 6,5 C 0,0 km/h (0 Bft)
11.05.2015 21:40 12,9 C 12,5 C 65 % 1022,5 hPa 0,0 mm 0,8 km/h (0 Bft) SO 135 6,5 C 0,0 km/h (0 Bft)
11.05.2015 21:45 12,7 C 12,4 C 64 % 1022,5 hPa 0,0 mm 0,0 km/h (0 Bft) SO 135 6,1 C 0,0 km/h (0 Bft)
11.05.2015 21:50 13,2 C 12,8 C 65 % 1022,5 hPa 0,0 mm 2,8 km/h (1 Bft) S 180 6,8 C 2,6 km/h (1 Bft)
11.05.2015 21:55 13,3 C 12,9 C 65 % 1022,8 hPa 0,0 mm 2,8 km/h (1 Bft) SO 135 6,9 C 0,0 km/h (0 Bft)
11.05.2015 22:00 13,1 C 12,8 C 65 % 1022,8 hPa 0,0 mm 1,0 km/h (0 Bft) SO 135 6,7 C 0,0 km/h (0 Bft)
11.05.2015 22:05 13,1 C 12,8 C 64 % 1022,8 hPa 0,0 mm 0,3 km/h (0 Bft) SW 225 6,4 C 0,0 km/h (0 Bft)
11.05.2015 22:10 12,6 C 12,4 C 66 % 1022,8 hPa 0,0 mm 0,8 km/h (0 Bft) SW 225 6,4 C 5,4 km/h (1 Bft)
11.05.2015 22:15 12,8 C 12,6 C 66 % 1022,8 hPa 0,0 mm 0,8 km/h (0 Bft) SO 135 6,6 C 0,0 km/h (0 Bft)
11.05.2015 22:20 12,9 C 12,7 C 67 % 1022,8 hPa 0,0 mm 1,0 km/h (0 Bft) O-SO 112 6,9 C 7,0 km/h (2 Bft)
11.05.2015 22:25 12,9 C 12,8 C 66 % 1022,8 hPa 0,0 mm 0,8 km/h (0 Bft) S 180 6,7 C 0,0 km/h (0 Bft)
11.05.2015 22:30 12,5 C 12,4 C 67 % 1022,8 hPa 0,0 mm 1,3 km/h (1 Bft) S 180 6,5 C 4,7 km/h (1 Bft)
11.05.2015 22:35 12,4 C 12,4 C 67 % 1022,8 hPa 0,0 mm 1,3 km/h (1 Bft) S 180 6,4 C 2,6 km/h (1 Bft)
11.05.2015 22:40 12,7 C 12,6 C 67 % 1022,8 hPa 0,0 mm 1,8 km/h (1 Bft) SO 135 6,7 C 0,0 km/h (0 Bft)
11.05.2015 22:45 12,5 C 12,4 C 66 % 1022,8 hPa 0,0 mm 1,8 km/h (1 Bft) SW 225 6,3 C 3,6 km/h (1 Bft)
11.05.2015 22:50 12,8 C 12,6 C 66 % 1022,8 hPa 0,0 mm 6,0 km/h (2 Bft) SW 225 6,6 C 6,7 km/h (2 Bft)
11.05.2015 22:55 12,8 C 12,7 C 65 % 1022,8 hPa 0,0 mm 5,7 km/h (1 Bft) SW 225 6,4 C 0,0 km/h (0 Bft)
11.05.2015 23:00 12,5 C 12,4 C 65 % 1022,8 hPa 0,0 mm 1,3 km/h (1 Bft) S 180 6,1 C 0,0 km/h (0 Bft)
11.05.2015 23:05 12,4 C 12,5 C 65 % 1022,8 hPa 0,0 mm 0,0 km/h (0 Bft) SW 225 6,0 C 0,0 km/h (0 Bft)
11.05.2015 23:10 12,4 C 12,2 C 65 % 1022,8 hPa 0,0 mm 0,0 km/h (0 Bft) S 180 6,0 C 0,0 km/h (0 Bft)
11.05.2015 23:15 12,1 C 11,9 C 65 % 1022,8 hPa 0,0 mm 0,0 km/h (0 Bft) S 180 5,7 C 0,0 km/h (0 Bft)
11.05.2015 23:20 12,2 C 12,0 C 65 % 1022,8 hPa 0,0 mm 0,0 km/h (0 Bft) S 180 5,8 C 0,0 km/h (0 Bft)
11.05.2015 23:25 12,2 C 12,0 C 65 % 1022,8 hPa 0,0 mm 0,0 km/h (0 Bft) S-SW 202 5,8 C 0,0 km/h (0 Bft)
11.05.2015 23:30 12,4 C 12,0 C 66 % 1022,8 hPa 0,0 mm 0,0 km/h (0 Bft) S-SO 157 6,2 C 0,0 km/h (0 Bft)
11.05.2015 23:35 12,2 C 11,8 C 65 % 1023,1 hPa 0,0 mm 0,0 km/h (0 Bft) SO 135 5,8 C 0,0 km/h (0 Bft)
11.05.2015 23:40 11,5 C 11,3 C 65 % 1023,1 hPa 0,0 mm 0,0 km/h (0 Bft) O-SO 112 5,2 C 0,0 km/h (0 Bft)
11.05.2015 23:45 11,1 C 10,9 C 66 % 1023,1 hPa 0,0 mm 0,0 km/h (0 Bft) O-SO 112 5,0 C 0,0 km/h (0 Bft)
11.05.2015 23:50 10,6 C 10,4 C 66 % 1023,1 hPa 0,0 mm 0,0 km/h (0 Bft) O-SO 112 4,5 C 0,0 km/h (0 Bft)
11.05.2015 23:55 10,6 C 10,3 C 68 % 1022,9 hPa 0,0 mm 0,0 km/h (0 Bft) O-SO 112 4,9 C 0,0 km/h (0 Bft)
_ Min-Zeit 05:55 05:55 15:50 20:50 - 23:55 - - 05:55 23:55
Minimum _ 4,1 C 3,9 C 33 % 1022,3 hPa - 0,0 km/h (0 Bft) - - 2,1 C 0,0 km/h (0 Bft)
_ Max-Zeit 15:15 15:45 06:25 00:50 23:55 11:45 - - 11:00 12:10
Maximum _ 24,6 C 29,1 C 88 % 1025,9 hPa 0,0 mm 9,6 km/h
S (2 Bft)
- - 10,1 C 20,7 km/h
O-NO (4 Bft)
Durchschnitt _ 14,7 C 17,2 C 61 % 1024,0 hPa #0,0 mm 2,4 km/h (1 Bft) NO - 6,3 C 3,2 km/h (1 Bft)